Charlottesville, VA

9:04 AM EDT on April 26, 2018 (GMT -0400)
Charlottesville-Albemarle

Weather History for KCHO - January, 2011

Change the Weather History Date:

Saturday, January 29, 2011

  Actual Average Record
Temperature  
Mean Temperature 37 °F 36 °F  
Max Temperature 50 °F 45 °F 74 °F (2002)
Min Temperature 23 °F 26 °F 5 °F (2014)
Degree Days  
Heating Degree Days 28 29  
Month to date heating degree days 890 866  
Since 1 July heating degree days 2582 2602  
Cooling Degree Days 0 0  
Month to date cooling degree days 0 0  
Year to date cooling degree days 0 0  
Moisture  
Dew Point 23 °F    
Average Humidity 62    
Maximum Humidity 78    
Minimum Humidity 45    
Precipitation  
Precipitation 0.00 in 0.07 in 0.63 in (1952)
Month to date precipitation 0.89 2.62  
Year to date precipitation 0.89 2.62  
Sea Level Pressure  
Sea Level Pressure 29.95 in    
Wind  
Wind Speed 1 mph (SE)    
Max Wind Speed 7 mph    
Max Gust Speed 12 mph    
Visibility 10 miles    
Events      
T = Trace of Precipitation, MM = Missing Value Source: NWS Daily Summary

Daily Weather History Graph

Daily Weather History Graph

Search for Another Location

Airport or City:

Astronomy

Jan. 29, 2011 Rise Set
Actual Time 7:21 AM EST 5:33 PM EST
Civil Twilight 6:53 AM EST 6:01 PM EST
Nautical Twilight 6:21 AM EST 6:32 PM EST
Astronomical Twilight 5:50 AM EST 7:03 PM EST
Moon 3:54 AM EST (1/29) 1:29 PM EST (1/29)
Length of Visible Light 11h 07m
Length of Day
10h 11m
Waning Crescent, 18% of the Moon is Illuminated
Jan 29
Waning Crescent
Feb 2
New
Feb 11
First Quarter
Feb 18
Full
Feb 24
Last Quarter

Hourly Weather History & Observations

Time (EST) Temp. Windchill Dew Point Humidity Pressure Visibility Wind Dir Wind Speed Gust Speed Precip Events Conditions
12:53 AM 30.9 °F - 19.9 °F 64% 29.95 in 10.0 mi Calm Calm - N/A   Clear
1:53 AM 30.0 °F - 17.1 °F 59% 29.96 in 10.0 mi Calm Calm - N/A   Clear
2:53 AM 30.0 °F - 16.0 °F 56% 29.98 in 10.0 mi Calm Calm - N/A   Clear
3:53 AM 30.0 °F - 16.0 °F 56% 29.98 in 10.0 mi Calm Calm - N/A   Clear
4:53 AM 26.1 °F - 18.0 °F 71% 29.99 in 10.0 mi Calm Calm - N/A   Clear
5:53 AM 24.1 °F - 17.1 °F 75% 30.01 in 10.0 mi Calm Calm - N/A   Clear
6:53 AM 26.1 °F - 17.1 °F 69% 30.03 in 10.0 mi Calm Calm - N/A   Clear
7:53 AM 27.0 °F 23.0 °F 19.9 °F 75% 30.03 in 10.0 mi South 3.5 mph - N/A   Overcast
8:53 AM 28.9 °F - 21.0 °F 72% 30.03 in 10.0 mi Calm Calm - N/A   Overcast
9:53 AM 32.0 °F 28.7 °F 21.0 °F 64% 30.02 in 10.0 mi SSE 3.5 mph - N/A   Overcast
10:53 AM 34.0 °F - 21.9 °F 61% 30.01 in 10.0 mi Calm Calm - N/A   Scattered Clouds
11:53 AM 37.0 °F 34.5 °F 23.0 °F 57% 29.95 in 10.0 mi SSW 3.5 mph - N/A   Overcast
12:53 PM 37.9 °F 34.4 °F 25.0 °F 60% 29.91 in 10.0 mi South 4.6 mph - N/A   Overcast
1:53 PM 42.1 °F 40.2 °F 27.0 °F 55% 29.86 in 10.0 mi SSE 3.5 mph - N/A   Overcast
2:53 PM 46.0 °F - 26.1 °F 46% 29.83 in 10.0 mi Calm Calm - N/A   Clear
3:53 PM 48.0 °F - 30.0 °F 50% 29.83 in 10.0 mi Calm Calm - N/A   Clear
4:53 PM 45.0 °F - 30.0 °F 56% 29.84 in 10.0 mi Calm Calm - N/A   Clear
5:53 PM 41.0 °F - 27.0 °F 57% 29.87 in 10.0 mi Calm Calm - N/A   Clear
6:53 PM 39.0 °F - 27.0 °F 62% 29.90 in 10.0 mi Calm Calm - N/A   Clear
7:53 PM 36.0 °F 33.3 °F 27.0 °F 70% 29.92 in 10.0 mi NE 3.5 mph - N/A   Clear
8:53 PM 35.1 °F 31.0 °F 27.0 °F 72% 29.94 in 10.0 mi NE 4.6 mph - N/A   Clear
9:53 PM 33.1 °F - 26.1 °F 75% 29.97 in 10.0 mi Calm Calm - N/A   Clear
10:53 PM 30.9 °F 27.5 °F 25.0 °F 79% 29.99 in 9.0 mi NE 3.5 mph - N/A   Clear
11:53 PM 32.0 °F - 26.1 °F 79% 30.01 in 8.0 mi Calm Calm - N/A   Clear